Simultaneous Nadir Overpasses (SNOs) Predictions

Prediction of SNOs between AQUA and METOP-B Satellite Orbit:

Table of predicted SNOs for the next 14.0 days since TLE Epoch: 1/4/2020
Index Date (AQUA) Time (AQUA) Lat,Lon (AQUA) SZA (AQUA ) Date (METOP-B) Time (METOP-B) Lat,Lon (METOP-B) SZA (METOP-B ) Distance(km) Time Diff (sec)
1 01/05/2020 15:12:06 73.66, -53.51 96.30 01/05/2020 15:10:54 73.64, -53.88 96.30 12.09 72
2 01/05/2020 16:01:34 -73.82, 113.80 83.54 01/05/2020 16:01:32 -73.82, 113.88 83.54 2.50 2
3 01/05/2020 16:51:03 73.87, -78.67 96.51 01/05/2020 16:52:11 73.87, -78.67 96.50 0.37 68
4 01/08/2020 10:46:22 73.72, 12.81 96.03 01/08/2020 10:45:16 73.73, 12.75 96.05 2.18 66
5 01/08/2020 11:35:49 -73.82,-179.75 83.88 01/08/2020 11:35:56 -73.82,-179.71 83.88 1.42 7
6 01/08/2020 12:25:20 73.98, -12.48 96.29 01/08/2020 12:26:32 74.01, -11.92 96.30 17.52 72
7 01/11/2020 06:20:37 73.73, 79.23 95.65 01/11/2020 06:19:40 73.72, 79.14 95.65 2.86 57
8 01/11/2020 07:10:04 -73.82,-113.32 84.27 01/11/2020 07:10:20 -73.82,-113.30 84.27 0.47 16
9 01/11/2020 07:59:42 74.35, 53.10 96.30 01/11/2020 08:00:49 74.35, 55.34 96.22 67.21 67
10 01/14/2020 01:54:51 73.75, 145.64 95.22 01/14/2020 01:54:02 73.77, 145.65 95.24 2.10 49
11 01/14/2020 02:44:18 -73.83, -46.90 84.71 01/14/2020 02:44:43 -73.82, -46.90 84.72 1.24 25
12 01/16/2020 21:29:06 73.77,-147.97 94.74 01/16/2020 21:28:26 73.76,-147.96 94.73 1.40 40
13 01/16/2020 22:18:33 -73.85, 19.51 85.19 01/16/2020 22:19:07 -73.82, 19.50 85.23 3.27 34




NCC Satellite Simultaneous Nadir Overpasses (SNOs) Prediction Service
